GLOBALSTAR M028 [-]

Last updated on July 6, 2021, 3:36 p.m. UTC

1 25875U 99041D   21186.71226399 -.00000082  00000-0  11671-3 0  9997
2 25875  51.9599 173.9372 0063387 179.6539 180.4375 12.50511540  9704
UTC
Height (km)
Latitude
Longitude
Inclination
Orbital Period
UTC large
Height (km)
Speed (km/s)
/
Latitude / Longitude
Inclination (degrees)
Orbital Period (minutes)
Azimuth
Elevation
Range (km)
Doppler Factor
iOS Compass Heading
iOS Angle